C/2016 T3 ( PanSTARRS )

Japanese version
Home page
Updated on July 6, 2017

---------------------------------------------------------------------

* Profile

Discovery Date October 10, 2016
Magnitude 20.1 mag
Discoverer Pan-STARRS 1 telescope (Haleakala)

* Pictures

* Orbital Elements

Epoch 2017 Sept. 4.0 TT = JDT 2458000.5
T 2017 Sept. 6.97778 TT                                 MPCW
q   2.6495395            (2000.0)            P               Q
z  +0.0070514      Peri.  194.67554     -0.26318414     -0.88444753
 +/-0.0000090      Node   271.74938     +0.91943978     -0.10898366
e   0.9813170      Incl.   22.67599     +0.29217220     -0.45373464
From 212 observations 2016 Oct. 10-2017 Mar. 28, mean residual 0".5.

* Finding Charts

* Magnitudes Graph

        m1 = 10.2 + 5 log d + 10.0 log r

---------------------------------------------------------------------

The orbital elements are published on M.P.E.C. 2017-J52.
The charts are made with StellaNavigator Ver.10 (AstroArts).
The magnitudes graphs are made with Comet for Windows.

---------------------------------------------------------------------

Copyright(C) Seiichi Yoshida (comet@aerith.net). All rights reserved.